PALAPA B1 R/B(PAM-D), 14136

Orbit data source: Space-Track

PALAPA B1 R/B(PAM-D), 14136 is space debris in HEO originally from a launch on Sat, 18 Jun 1983 UTC launched from the Air Force Eastern Test Range (AFETR). Debris objects in space refer to the collection of defunct objects orbiting the Earth. Examples of debris include non-operational satellites, rocket bodies, and fragments generated from explosions, collisions, or faulty payload assembly.

Loading next visibility...
Identifier
14136, 1983-059E
Orbit
HEO
Country
Flag of USUS
Related business
Manufacturer
Thiokol/TE
Mission
Spacecraft
Bus & Motor
STAR 48, Unknown motor
Mass
2,154 kg wet, 191 kg dry
Launch date (UTC)
1983-06-18 (43 years ago)
Launch vehicle
Unknown
Launch site
Air Force Eastern Test Range (AFETR)
Object type
Payload
Rocket body
Debris
Shape & HBR
Unknown
Radar Cross Section
Large (>1 m²)

Expand to show TLE details & history
Last TLE update: 17 hours ago

TLE from 17 hours ago
0 PALAPA B1 R/B(PAM-D)
1 14136U 83059E   26062.66640481  .00002424  00000-0  19872-2 0  9992
2 14136  25.6187  95.4482 6913250 210.4220  79.2948  2.71015956344157
Epoch: 2026-03-03T15:59Z
TLE epoch observation values (Epoch: 2026-03-03T15:59:37.375Z)
Latitude
Longitude
54.14351°
Altitude
21,703.786 km
Speed
3.17 km/s
True Right ascension
06h 21m 57s
True Declination
0° 00' 00"
Sunlit
Object was in daylight at epoch
Visualization orbit readout
Latitude
Unknown
Longitude
Unknown
Altitude
Unknown
Speed
Unknown
Apparent Right ascension
Unknown
Apparent Declination
Unknown
Sunlit
N/A
Visualization observer readout
Local Sidereal Time
13:08:13
Azimuth
Unknown
Elevation
Unknown
Doppler factor
Unknown
Orbital elements
Apogee altitude
30,381.951 km
Perigee altitude
330.757 km
Semi-major axis
21,734.491 km
Eccentricity
0.69133
Inclination
25.6187°
RAAN
95.4482°
Arg. of periapsis
210.422°
True anomaly
149.63396°
Mean anomaly
79.2948°
Eccentric anomaly
115.14977°
Mean motion
0.67736 °/min
Orbital period
531.48 mins
BSTAR
0.0019872
Loading maneuver chart data...
Computing Atmospheric mass density...
Loading historical data...
Loading historical data...
Loading historical data...
Loading historical data...
Loading historical data...
Loading historical data...
Loading historical data...

Documentation

Showing up to 5 results
|